Flag for Germany Weather past 2 weeks in Ellwangen (Jagst), Baden-Württemberg, Germany

Now
60 °F

Partly sunny.


Feels Like: 60 °F
Forecast: 44 / 72 °F
Wind: 5 mph from Southwest

Location: Stoetten

Current Time: Jul 30, 2015 at 2:19:17 PM

Latest Report: Jul 30, 2015 at 2:00 PM


Visibility: 47 mi

Pressure: 29.98 "Hg

Humidity: 52%

Dew point: 42 °F

Location of Ellwangen (Jagst)Location

Historic Weather in Ellwangen (Jagst) — Graph

°F

Ellwangen (Jagst) temperature yesterday

Maximum temperature yesterday: 58 °F (at 12:00 PM)
Minimum temperature yesterday: 49 °F (at 3:00 AM)
Average temperature yesterday: 53 °F

Past Weeks' High & Low Weather Summary

 TemperatureHumidityPressure
High89 °F (Jul 22, 2:00 PM)100% (Jul 23, 4:00 AM)30.12 "Hg (Jul 23, 4:00 AM)
Low46 °F (Jul 26, 5:00 AM)28% (Jul 17, 12:00 PM)29.67 "Hg (Jul 24, 7:00 PM)
Average67 °F65%29.92 "Hg
* Reported Jul 15 1:00 PM — Jul 30 1:00 PM, Ellwangen (Jagst), Weather by CustomWeather, © 2015

Note: Actual official high and low records may vary slightly from our data, if they occured in-between our weather recording intervals... More about our weather records

Advertising

Ellwangen (Jagst) weather history for previous 24 hours

 ConditionsComfort  
Time TempWeatherWind HumidityBarometerVisibility
1:00 PM
Thu, Jul 30
58 °FPartly sunny.7 mph57%29.99 "Hg47 mi
12:00 PM60 °FScattered clouds.7 mph57%29.98 "Hg47 mi
11:00 AM58 °FScattered clouds.N/A62%29.99 "Hg47 mi
10:00 AM56 °FScattered clouds.3 mph65%29.99 "Hg47 mi
9:00 AM54 °FScattered clouds.6 mph72%30.00 "Hg47 mi
8:00 AM52 °FPartly sunny.5 mph75%30.00 "Hg43 mi
7:00 AM48 °FScattered clouds.3 mph80%30.02 "Hg40 mi
5:00 AM47 °FClear.3 mph83%30.02 "Hg22 mi
4:00 AM47 °FClear.3 mph83%30.02 "Hg22 mi
3:00 AM48 °FClear.3 mph82%30.02 "Hg22 mi
2:00 AM49 °FClear.3 mph83%30.01 "Hg22 mi
1:00 AM49 °FClear.5 mph85%30.01 "Hg19 mi
12:00 AM49 °FClear.3 mph85%30.00 "Hg22 mi
11:00 PM
Wed, Jul 29
50 °FClear.3 mph80%29.98 "Hg22 mi
10:00 PM50 °FClear.3 mph80%29.97 "Hg19 mi
9:00 PM52 °FPassing clouds.5 mph77%29.93 "Hg19 mi
8:00 PM55 °FScattered clouds.6 mph75%29.90 "Hg25 mi
7:00 PM54 °FScattered clouds.8 mph94%29.88 "HgN/A
6:00 PM52 °FLow clouds.6 mph100%29.90 "Hg3 mi
5:00 PM51 °FRain. Low clouds.8 mph99%29.89 "Hg1 mi
4:00 PM52 °FDrizzle. Low clouds.5 mph100%29.86 "Hg1 mi
3:00 PM54 °FDrizzle. Low clouds.6 mph99%29.83 "Hg2 mi
2:00 PM56 °FLight rain. Overcast.5 mph95%29.82 "Hg8 mi
Weather by CustomWeather, © 2015

See weather overviewHow to use our weather pages